Powrót do katalogu

STARLINK-5011

AktywnyŁącznośćVLEO
NORAD 53925·PAYLOAD·🇺🇸 United States

Wystrzelony Sep 24, 2022 z Cape Canaveral Space Force Station

Loading…

Następne Przeloty (najbliższe 24 godziny)

TLE

ŚwieżeSource: CelesTrak SupGP

Epoka: Sep 14, 2026, 22:01 UTC

1 53925C 22119AR  26257.91784722 -.00024903  00000+0 -15618-2 0  2570
2 53925  53.1591 183.6122 0001415  92.6466  52.1678 15.08844872    14

Śledź STARLINK-5011 w czasie rzeczywistym z AllMySat

Download on the App Store